Regional Weather Roundup
Issued by NWS Albany, NY

Current Version | Previous Version | Text Only | Print | Product List | Glossary On
Versions: 1 2 3 4 5 6 7 8 9 10 11 12 13 14 15 16 17 18 19 20 21 22 23 24 25 26 27 28 29 30 31 32 33 34 35 36 37 38 39 40 41 42 43 44 45 46 47 48 49 50
000 ASUS41 KALY 290210 RWRALY NEW YORK STATE HOURLY WEATHER ROUNDUP NATIONAL WEATHER SERVICE ALBANY NY 900 PM EST FRI NOV 28 2014 NOTE: "FAIR" INDICATES FEW OR NO CLOUDS BELOW 12,000 FEET WITH NO SIGNIFICANT WEATHER AND/OR NO OBSTRUCTIONS TO VISIBILITY. NYZ032-033-038>043-046>054-057>066-NYZ062>081-290300- EAST CITY SKY/WX TMP DP RH WIND PRES REMARKS ALBANY PTCLDY 24 12 60 W10 30.22S WCI 14 GLENS FALLS PTCLDY 15 10 80 CALM 30.20F POUGHKEEPSIE CLEAR 20 14 77 CALM 30.25R NEWBURGH CLEAR 19 16 86 CALM 30.24R MONTGOMERY CLEAR 17 12 80 CALM 30.23R WHITE PLAINS CLEAR 26 12 55 NW8 30.23R WCI 18 ISLIP CLEAR 28 14 55 NW6 30.23R WCI 22 NEW YORK CITY PTCLDY 30 13 49 NW10 30.27R WCI 21 CENTRAL PARK CLEAR 30 12 47 NW6 30.28R WCI 24 $$ NYZ005>009-017-018-044>046-055-056-290300- CENTRAL CITY SKY/WX TMP DP RH WIND PRES REMARKS FULTON CLOUDY 25 14 63 SW10 30.20F WCI 15 SYRACUSE FLURRIES 26 15 63 SW12 30.22S WCI 16 ROME FLURRIES 22 18 85 CALM 30.23S ELMIRA PTCLDY 15 11 83 CALM 30.22S BINGHAMTON CLEAR 19 9 65 W3 30.17R MONTICELLO CLEAR 16 10 79 NW7 30.17S WCI 6 $$ NYZ026>034-041>043-290300- NORTH CITY SKY/WX TMP DP RH WIND PRES REMARKS WATERTOWN PTCLDY 24 11 57 N6 30.20S WCI 17 FORT DRUM NOT AVBL MASSENA CLEAR 16 13 88 CALM 30.21R SARANAC LAKE CLEAR 6 32 100 SW5 30.08R WCI -3 PLATTSBURGH CLEAR 18 12 77 CALM 30.19S $$ NYZ001>004-010>016-019>021-290300- WEST CITY SKY/WX TMP DP RH WIND PRES REMARKS NIAGARA FALLS MOCLDY 20 12 71 CALM 30.19F BUFFALO FLURRIES 24 14 65 SW3 30.19F DUNKIRK CLOUDY 26 16 65 S10G23 30.19F WCI 16 JAMESTOWN MOCLDY 18 12 79 S5 30.14F WCI 11 WELLSVILLE PTCLDY 18 9 68 S6 30.13F WCI 10 ROCHESTER CLOUDY 25 17 72 SW5 30.22S WCI 19 PENN YAN CLOUDY 25 14 63 SW5 30.20F WCI 19 $$ KEY WCI = WIND CHILL INDEX VSB = VISIBILITY HX = HEAT INDEX $$

USA.gov is the U.S. government's official web portal to all federal, state and local government web resources and services.